Location: Acequia del Cap
(41.7000°N, 0.6167°E)
Time: 16:46:05
(UTC+00:00)

Cosmos 858 Rocket - Pass Details

Date: 07 August 2020
Orbit: 757 x 774 km, 74.0° (Epoch: 23 September)

Event Time Altitude Azimuth Distance (km) Brightness Sun altitude
Exits shadow 03:07:32 32° 210° (SSW) 1,317 5.2 -18.1°
Maximum altitude 03:10:03 75° 290° (WNW) 803 4.5 -17.7°
Drops below altitude 10° 03:15:21 10° 16° (NNE) 2,325 7.9 -17.0°
Sets 03:17:45 0° 19° (NNE) 3,254 8.8 -16.7°
